[[{"header":{"parameterUnit":"m.s-1","parameterCategory":1,"la1":30.2991,"la2":30.254,"lo1":-89.0895,"lo2":-89.0444,"dy":0.0017,"dx":0.0017,"nx":28,"ny":28,"refTime":"2025-12-10T03:00:00:Z","depth":0,"parameterNumber":2,"parameterNumberName":"U-component_of_WINDS"},"data":[0,0,0,0,0,0,0,0,0,0,0,0,0,0,0,0,0,0,0,0,0,0,0,0,0,0,0,0,0,0,0,0,0,0,0,0,0,0,0,0,0,0,0,0,0,0,0,0,0,0,0,0,0,0,0,0,0,0,-1.205,-1.205,0,-1.2028,-1.2028,-1.2028,-1.1964,-1.1963,-1.1962,-1.196,-1.194,-1.1941,-1.1942,0,0,0,0,0,0,0,0,0,0,0,0,0,-1.2039,-1.204,-1.205,-1.205,-1.205,-1.2028,-1.2028,-1.2028,-1.1965,-1.1963,-1.1961,-1.196,-1.194,-1.1941,-1.1942,0,0,0,0,0,0,0,0,0,0,0,0,0,-1.2034,-1.204,-1.205,-1.2016,-1.2012,-1.2028,-1.2028,-1.2028,-1.1965,-1.1963,-1.1961,-1.1959,-1.194,-1.1941,-1.1942,-1.1991,0,0,-1.1945,-1.1946,0,0,0,0,0,0,0,0,-1.2034,-1.2034,-1.2021,-1.2018,-1.2014,-1.1997,-1.2017,-1.2015,-1.1966,-1.1983,-1.196,-1.1958,-1.1961,-1.196,-1.1961,-1.199,-1.1989,-1.1946,-1.1946,-1.1947,-1.1947,0,0,0,0,0,0,0,-1.2035,-1.2035,-1.2042,-1.2021,-1.2017,-1.2002,-1.1999,-1.2016,-1.1984,-1.1981,-1.1977,-1.1975,-1.1959,-1.196,-1.196,-1.1989,-1.1946,-1.1947,-1.1947,-1.1948,-1.2057,-1.2059,0,0,0,0,0,0,-1.204,-1.2035,-1.2042,-1.2041,-1.2019,-1.2004,-1.2,-1.2005,-1.1984,-1.1978,-1.1977,-1.1972,-1.1959,-1.1959,-1.1959,-1.2015,-1.1947,-1.1948,-1.1948,-1.2055,-1.2058,-1.206,0,0,0,0,0,0,-1.204,-1.2041,-1.2043,-1.2037,-1.2036,-1.2006,-1.2012,-1.2005,-1.2006,-1.198,-1.1974,-1.1984,-1.1957,-1.1957,-1.1983,-1.2014,-1.1948,-1.1949,-1.2052,-1.2056,-1.2059,-1.2128,0,0,0,0,0,0,-1.204,-1.2041,-1.2059,-1.2038,-1.2037,-1.2068,-1.2013,-1.2006,-1.2008,-1.2002,-1.1985,-1.198,-1.1956,-1.1982,-1.1984,-1.2014,-1.195,-1.2049,-1.2054,-1.2058,-1.2123,-1.2134,-1.2143,0,0,0,0,0,-1.2039,-1.208,-1.206,-1.2061,-1.2058,-1.2069,-1.2069,-1.2039,-1.2011,-1.2029,-1.2012,-1.1981,-1.201,-1.1985,-1.1987,-1.2018,-1.2047,-1.2053,-1.2057,-1.2119,-1.2132,-1.2142,0,0,0,0,0,0,-1.2106,-1.2076,-1.2054,-1.2089,-1.2082,-1.2059,-1.2081,-1.2053,-1.2055,-1.2049,-1.2013,-1.2009,-1.2041,-1.2032,-1.2005,-1.2064,-1.2023,-1.2029,-1.2069,-1.2081,-1.2091,-1.2093,-1.1951,0,0,0,0,0,-1.2125,-1.2136,-1.2109,-1.2142,-1.214,-1.2111,-1.2115,-1.2092,-1.2084,-1.2081,-1.2066,-1.206,-1.2068,-1.2074,-1.2079,-1.2121,-1.2117,-1.2143,-1.2153,-1.2161,-1.2167,-1.2189,-1.2201,-1.2076,-1.2076,-1.2076,0,0,-1.2164,-1.2149,-1.2158,-1.2155,-1.2147,-1.2161,-1.2109,-1.2125,-1.2134,-1.2084,-1.2108,-1.2096,-1.2087,-1.2121,-1.2136,-1.2115,-1.22,-1.2167,-1.2174,-1.2175,-1.2196,-1.2208,-1.2218,-1.208,-1.2079,-1.2079,0,0,-1.2241,-1.2231,-1.2257,-1.225,-1.2239,-1.2219,-1.2226,-1.2206,-1.2197,-1.222,-1.2182,-1.2193,-1.2207,-1.2202,-1.2202,-1.2277,-1.2249,-1.228,-1.2331,-1.2354,-1.2363,-1.2372,-1.24,-1.2411,-1.2286,-1.2286,-1.2286,0,-1.2292,-1.2309,-1.2275,-1.2293,-1.2294,-1.2247,-1.2275,-1.2269,-1.2261,-1.2263,-1.2239,-1.2255,-1.2246,-1.2279,-1.2297,-1.2298,-1.2305,-1.2283,-1.2365,-1.2373,-1.238,-1.2407,-1.2418,-1.229,-1.2289,-1.2289,-1.2288,0,-1.2372,-1.2385,-1.2408,-1.24,-1.2402,-1.2425,-1.2395,-1.2402,-1.238,-1.2363,-1.2387,-1.2374,-1.2376,-1.2382,-1.236,-1.2413,-1.24,-1.2371,-1.2329,-1.2397,-1.2421,-1.2431,-1.2295,-1.2294,-1.2293,-1.2292,0,0,-1.2492,-1.2465,-1.2474,-1.247,-1.2454,-1.2463,-1.2484,-1.2486,-1.2493,-1.2488,-1.2506,-1.2518,-1.2491,-1.2491,-1.2468,-1.2487,-1.255,-1.2456,-1.2455,-1.2475,-1.2608,-1.2631,-1.2644,-1.253,-1.2532,-1.2533,-1.2609,0,-1.2567,-1.2601,-1.2571,-1.2611,-1.2623,-1.2578,-1.2597,-1.2589,-1.2574,-1.2582,-1.2565,-1.2575,-1.2538,-1.2538,-1.2555,-1.2539,-1.2576,-1.2532,-1.2548,-1.2549,-1.2553,-1.2656,-1.2681,-1.2753,-1.2619,-1.262,-1.2621,0,-1.2659,-1.2658,-1.2699,-1.268,-1.2684,-1.2701,-1.2701,-1.2709,-1.27,-1.2687,-1.2686,-1.2658,-1.2678,-1.2636,-1.2664,-1.2635,-1.2639,-1.2632,-1.2634,-1.2636,-1.259,-1.2662,-1.2775,-1.2787,-1.2636,-1.2635,-1.2634,0,-1.2745,-1.2754,-1.2779,-1.2777,-1.2756,-1.2769,-1.2761,-1.2749,-1.2752,-1.2752,-1.2753,-1.2756,-1.2757,-1.276,-1.2733,-1.2705,-1.2765,-1.2721,-1.2757,-1.2758,-1.2773,-1.2773,-1.289,-1.2773,-1.2773,-1.2772,-1.2772,0,-1.2832,-1.286,-1.2818,-1.2834,-1.2864,-1.2828,-1.2859,-1.2846,-1.2836,-1.285,-1.2811,-1.2825,-1.2788,-1.2798,-1.2777,-1.2804,-1.2805,-1.2796,-1.2791,-1.2801,-1.2802,-1.2805,-1.28,-1.2775,-1.2775,-1.2774,-1.2774,0,-1.2934,-1.2907,-1.2932,-1.2909,-1.2904,-1.2927,-1.2908,-1.2922,-1.2904,-1.2922,-1.2924,-1.2896,-1.2906,-1.2879,-1.2885,-1.2871,-1.2911,-1.2896,-1.2914,-1.291,-1.2948,-1.2946,-1.3072,-1.3088,-1.296,-1.2961,-1.2962,0,-1.2992,-1.3012,-1.2991,-1.2997,-1.2991,-1.3001,-1.3004,-1.297,-1.2975,-1.2965,-1.2982,-1.2988,-1.2992,-1.301,-1.299,-1.2995,-1.2981,-1.3025,-1.2982,-1.2992,-1.2984,-1.2984,-1.2986,-1.3035,-1.3037,-1.3038,-1.3039,0,-1.31,-1.3085,-1.309,-1.3091,-1.3095,-1.3094,-1.3091,-1.3098,-1.3062,-1.3069,-1.3078,-1.3081,-1.3087,-1.3094,-1.3095,-1.3087,-1.3058,-1.3053,-1.3061,-1.3073,-1.3083,-1.308,-1.294,-1.305,-1.3049,-1.3048,-1.3048,-1.3047,-1.3183,-1.3199,-1.3186,-1.3194,-1.3187,-1.3185,-1.3197,-1.318,-1.3187,-1.3189,-1.3168,-1.3183,-1.3173,-1.317,-1.3165,-1.3176,-1.3156,-1.3169,-1.3172,-1.3176,-1.3183,-1.308,-1.3176,-1.3176,-1.3175,-1.3175,-1.3175,0,-1.3289,-1.3279,-1.3286,-1.3282,-1.3288,-1.3258,-1.3253,-1.326,-1.3273,-1.3266,-1.327,-1.3281,-1.3288,-1.3269,-1.3273,-1.3286,-1.3273,-1.3289,-1.3288,-1.3287,-1.32,-1.3193,-1.3299,-1.3299,-1.3299,-1.3299,-1.3299,-1.3299,-1.3346,-1.3372,-1.3356,-1.3378,-1.3368,-1.3381,-1.338,-1.3378,-1.3372,-1.3387,-1.3392,-1.3379,-1.3368,-1.3371,-1.3376,-1.3371,-1.3375,-1.3396,-1.3386,-1.3305,-1.3293,-1.3282,-1.3275,-1.3396,-1.3397,-1.3472,-1.3473,-1.3473]},{"header":{"parameterUnit":"m.s-1","parameterCategory":1,"la1":30.2991,"la2":30.254,"lo1":-89.0895,"lo2":-89.0444,"dy":0.0017,"dx":0.0017,"nx":28,"ny":28,"refTime":"2025-12-10T03:00:00:Z","depth":0,"parameterNumber":3,"parameterNumberName":"V-component_of_WINDS"},"data":[0,0,0,0,0,0,0,0,0,0,0,0,0,0,0,0,0,0,0,0,0,0,0,0,0,0,0,0,0,0,0,0,0,0,0,0,0,0,0,0,0,0,0,0,0,0,0,0,0,0,0,0,0,0,0,0,0,0,-1.4681,-1.4682,0,-1.4724,-1.4725,-1.4725,-1.4721,-1.472,-1.4719,-1.4719,-1.476,-1.4761,-1.4763,0,0,0,0,0,0,0,0,0,0,0,0,0,-1.4592,-1.4594,-1.4681,-1.4682,-1.4682,-1.4724,-1.4725,-1.4725,-1.4721,-1.472,-1.4719,-1.4718,-1.4759,-1.4761,-1.4763,0,0,0,0,0,0,0,0,0,0,0,0,0,-1.4633,-1.4595,-1.4681,-1.4685,-1.4686,-1.4724,-1.4725,-1.4725,-1.4721,-1.472,-1.4719,-1.4718,-1.4759,-1.4761,-1.4764,-1.48,0,0,-1.4772,-1.4773,0,0,0,0,0,0,0,0,-1.463,-1.4636,-1.4684,-1.4685,-1.4686,-1.4716,-1.4709,-1.475,-1.4721,-1.4708,-1.4719,-1.4717,-1.4746,-1.4749,-1.476,-1.4802,-1.4803,-1.4772,-1.4773,-1.4774,-1.4775,0,0,0,0,0,0,0,-1.4628,-1.4634,-1.4698,-1.4685,-1.4686,-1.4684,-1.4688,-1.4716,-1.4732,-1.4709,-1.4708,-1.4714,-1.4746,-1.4757,-1.4761,-1.4804,-1.4772,-1.4774,-1.4776,-1.4777,-1.4878,-1.4879,0,0,0,0,0,0,-1.4624,-1.4632,-1.4697,-1.4699,-1.4655,-1.4686,-1.4691,-1.4707,-1.4731,-1.4734,-1.4714,-1.4713,-1.4753,-1.4758,-1.4762,-1.4807,-1.4774,-1.4777,-1.4778,-1.4877,-1.4878,-1.4879,0,0,0,0,0,0,-1.4622,-1.463,-1.4695,-1.4666,-1.4674,-1.4689,-1.4707,-1.4709,-1.472,-1.4736,-1.4738,-1.4723,-1.4753,-1.4758,-1.4791,-1.4808,-1.4778,-1.478,-1.4875,-1.4877,-1.4879,-1.4895,0,0,0,0,0,0,-1.462,-1.4629,-1.4644,-1.4666,-1.4675,-1.4724,-1.4708,-1.471,-1.4725,-1.4723,-1.4745,-1.4747,-1.4752,-1.4787,-1.4793,-1.4811,-1.4782,-1.4874,-1.4876,-1.4878,-1.4893,-1.4898,-1.4901,0,0,0,0,0,-1.4617,-1.4646,-1.4645,-1.4653,-1.4694,-1.4725,-1.473,-1.4736,-1.4726,-1.474,-1.4751,-1.4746,-1.4805,-1.479,-1.4797,-1.4816,-1.4873,-1.4876,-1.4878,-1.4892,-1.4897,-1.4901,0,0,0,0,0,0,-1.4625,-1.4649,-1.4648,-1.4686,-1.4704,-1.4724,-1.4743,-1.4741,-1.4762,-1.476,-1.4765,-1.477,-1.4803,-1.4812,-1.4796,-1.4852,-1.4837,-1.4841,-1.4845,-1.485,-1.4854,-1.4851,-1.4785,0,0,0,0,0,-1.4632,-1.4656,-1.4675,-1.4706,-1.4715,-1.4728,-1.4741,-1.4744,-1.4763,-1.477,-1.4782,-1.4799,-1.4822,-1.4836,-1.4857,-1.4894,-1.4899,-1.491,-1.4914,-1.4917,-1.4921,-1.4942,-1.4947,-1.4888,-1.4888,-1.4888,0,0,-1.4645,-1.4661,-1.4676,-1.4709,-1.4723,-1.4747,-1.4734,-1.476,-1.4778,-1.4773,-1.4805,-1.4815,-1.4834,-1.4869,-1.4885,-1.4878,-1.4938,-1.4921,-1.4923,-1.4925,-1.4945,-1.4951,-1.4956,-1.489,-1.4889,-1.4889,0,0,-1.4682,-1.4696,-1.4725,-1.4739,-1.4761,-1.4769,-1.4775,-1.4796,-1.4803,-1.4835,-1.4833,-1.4853,-1.4891,-1.4905,-1.4917,-1.4959,-1.4956,-1.4965,-1.4986,-1.5006,-1.501,-1.5015,-1.503,-1.5036,-1.4969,-1.4969,-1.4969,0,-1.4695,-1.4733,-1.4739,-1.4766,-1.478,-1.4778,-1.4806,-1.482,-1.4847,-1.4856,-1.4848,-1.4896,-1.4909,-1.4947,-1.4958,-1.4967,-1.4975,-1.4964,-1.5009,-1.5014,-1.5018,-1.5033,-1.5039,-1.497,-1.497,-1.497,-1.497,0,-1.4749,-1.4775,-1.4795,-1.4822,-1.4839,-1.4866,-1.4875,-1.4891,-1.4892,-1.4901,-1.4933,-1.4948,-1.4973,-1.4982,-1.4983,-1.5021,-1.5016,-1.5008,-1.4994,-1.5024,-1.5039,-1.5044,-1.4972,-1.4971,-1.4971,-1.4971,0,0,-1.4793,-1.4824,-1.4832,-1.4844,-1.4868,-1.4888,-1.4914,-1.4939,-1.4953,-1.4971,-1.4994,-1.5025,-1.5019,-1.5033,-1.5035,-1.5052,-1.5086,-1.5043,-1.5043,-1.5051,-1.5129,-1.5135,-1.5142,-1.5083,-1.5084,-1.5085,-1.5127,0,-1.4834,-1.4883,-1.4889,-1.4932,-1.4956,-1.4954,-1.4977,-1.4993,-1.5002,-1.5022,-1.5031,-1.5054,-1.5043,-1.5051,-1.5068,-1.5078,-1.5101,-1.5075,-1.5104,-1.5105,-1.5101,-1.5149,-1.5156,-1.5195,-1.5133,-1.5134,-1.5134,0,-1.4888,-1.4909,-1.4955,-1.4976,-1.4986,-1.5007,-1.503,-1.505,-1.5068,-1.5073,-1.5088,-1.5088,-1.5115,-1.5098,-1.5135,-1.5117,-1.5129,-1.5136,-1.5137,-1.5141,-1.5123,-1.5156,-1.5208,-1.5214,-1.5143,-1.5142,-1.5142,0,-1.4917,-1.4957,-1.499,-1.5,-1.5025,-1.504,-1.5051,-1.5068,-1.5083,-1.5102,-1.5112,-1.5134,-1.5146,-1.5163,-1.5169,-1.5156,-1.5206,-1.5189,-1.521,-1.521,-1.5222,-1.5222,-1.5279,-1.5228,-1.5228,-1.5228,-1.5227,0,-1.4962,-1.4991,-1.5004,-1.5024,-1.5055,-1.5061,-1.5092,-1.5102,-1.5117,-1.5139,-1.5137,-1.5157,-1.5163,-1.5184,-1.5188,-1.5219,-1.5224,-1.5228,-1.5229,-1.5229,-1.5229,-1.5238,-1.5236,-1.5229,-1.5229,-1.5228,-1.5228,0,-1.5001,-1.5011,-1.5047,-1.5067,-1.5073,-1.5096,-1.5113,-1.5132,-1.5139,-1.5167,-1.5173,-1.5185,-1.5209,-1.5216,-1.5245,-1.5248,-1.5284,-1.5282,-1.5279,-1.5279,-1.53,-1.5299,-1.5366,-1.5376,-1.5317,-1.5318,-1.5318,0,-1.503,-1.5052,-1.5075,-1.509,-1.5102,-1.5126,-1.5141,-1.5147,-1.5163,-1.5185,-1.5202,-1.5226,-1.5246,-1.5285,-1.5295,-1.5317,-1.5316,-1.5339,-1.532,-1.5319,-1.5318,-1.5317,-1.532,-1.5343,-1.5343,-1.5344,-1.5344,0,-1.5081,-1.5085,-1.5107,-1.5132,-1.515,-1.5169,-1.5187,-1.5199,-1.5208,-1.5225,-1.5251,-1.5266,-1.5296,-1.5321,-1.5343,-1.5353,-1.535,-1.535,-1.5356,-1.5357,-1.5355,-1.5357,-1.529,-1.5349,-1.5348,-1.5348,-1.5348,-1.5347,-1.5117,-1.5136,-1.5156,-1.5181,-1.5196,-1.5213,-1.5232,-1.5243,-1.5264,-1.529,-1.5292,-1.5319,-1.5336,-1.5366,-1.5377,-1.5399,-1.5392,-1.5401,-1.5403,-1.5406,-1.5408,-1.535,-1.5402,-1.5402,-1.5402,-1.5402,-1.5402,0,-1.5168,-1.5181,-1.5204,-1.523,-1.525,-1.5246,-1.5266,-1.5282,-1.5307,-1.5324,-1.5344,-1.5373,-1.5396,-1.5408,-1.5432,-1.5446,-1.5445,-1.5452,-1.5452,-1.5454,-1.5412,-1.5405,-1.5452,-1.5452,-1.5452,-1.5452,-1.5452,-1.5452,-1.5198,-1.5231,-1.5237,-1.5278,-1.5289,-1.5318,-1.533,-1.5345,-1.5359,-1.5392,-1.5412,-1.542,-1.5434,-1.5458,-1.5479,-1.5482,-1.5491,-1.5499,-1.5501,-1.5462,-1.5457,-1.5452,-1.5446,-1.5501,-1.5501,-1.5541,-1.5542,-1.5542]}]]